Wind_Speed
106 107 108 110 111 113 114 116 117 118 120 121 123 124 126 127 129 130 132 133 135 136 137 139 140 142 143 145 146 148 149 150 150 151 152 153 154 154 155 156 157 158
108 109 111 112 113 115 117 118 119 121 122 123 125 127 128 130 132 133 134 136 137 139 140 141 143 144 145 146 148 149 150 150 151 151 152 153 154 154 155 156 157 157
111 112 113 115 116 118 119 120 122 123 125 126 128 129 131 132 134 135 137 138 139 141 142 143 144 145 147 148 149 149 150 151 151 151 152 153 153 153 153 153 154 154
113 114 116 117 119 120 122 123 124 126 127 129 130 132 133 135 136 138 139 140 142 143 144 145 146 146 147 148 149 150 150 150 150 150 150 150 150 149 150 150 151 152
115 117 118 120 121 122 124 125 127 128 130 131 133 134 136 137 139 140 141 142 143 144 145 146 147 147 148 150 150 150 150 149 149 148 148 148 148 148 149 150 151 152
117 118 120 121 123 125 126 128 129 131 132 134 136 137 138 140 141 142 143 144 145 146 147 147 148 149 149 149 149 149 148 147 147 146 147 147 147 147 148 148 149 150
119 121 122 124 126 128 129 131 133 134 136 137 139 140 141 143 144 145 145 146 147 147 147 147 147 147 147 146 146 146 145 145 144 145 145 145 145 145 146 147 148 149
123 125 126 128 130 132 133 135 137 138 139 140 141 142 143 144 144 145 145 145 145 145 144 144 143 143 142 142 142 142 142 142 142 143 143 144 144 145 145 146 147 148
126 127 129 130 131 133 134 135 136 137 138 138 139 139 139 140 140 140 140 140 140 139 139 139 138 138 138 138 139 139 139 140 141 142 143 144 144 144 145 146 146 147
124 124 125 126 127 128 128 129 130 131 132 132 132 132 133 133 134 134 134 134 135 135 135 135 135 135 135 136 136 137 138 140 142 143 144 144 143 144 144 144 144 143
117 118 119 120 121 121 122 123 124 125 126 126 127 127 128 129 130 130 131 131 131 132 132 132 132 132 133 135 137 138 139 141 142 143 143 143 142 141 141 140 139 138
113 113 114 115 116 117 118 120 121 122 123 123 124 125 126 127 127 128 128 128 129 129 129 130 131 132 134 136 138 139 140 141 142 142 141 139 138 136 135 134 134 132
110 111 112 113 114 115 116 118 119 121 121 122 123 124 124 125 126 126 127 127 127 128 129 130 132 134 136 138 139 139 139 139 139 137 136 134 133 131 130 129 128 126
109 110 111 112 113 114 116 118 119 120 121 121 122 123 123 124 125 126 126 127 128 129 130 132 134 135 136 137 137 136 135 134 133 132 131 129 128 126 125 123 121 120
110 110 111 112 113 115 117 118 119 120 120 121 122 123 123 124 125 126 127 128 129 131 132 133 134 133 133 133 132 131 130 129 129 128 125 123 121 120 118 117 115 114
111 112 112 113 114 116 118 119 119 120 120 121 122 123 124 125 126 127 128 129 130 131 132 131 131 129 129 128 128 127 126 125 124 122 119 117 115 113 112 111 110 109
112 113 114 114 116 117 119 119 120 120 121 122 123 124 125 125 126 127 128 128 129 129 129 128 126 125 125 125 124 122 120 118 117 115 113 111 109 108 107 106 104 103
113 114 115 116 117 118 119 119 120 120 121 122 123 124 124 125 125 126 126 126 126 126 125 125 124 123 122 121 119 116 114 112 111 110 108 106 104 102 101 100 98 97
113 113 114 115 116 117 118 118 119 119 120 121 121 122 123 123 124 124 124 124 123 123 123 123 121 118 116 114 112 110 108 107 106 105 103 101 98 97 96 94 93 92
111 111 112 114 114 115 116 116 117 117 117 118 119 120 121 122 122 122 122 122 121 121 120 118 115 112 110 108 106 105 104 103 102 100 98 95 93 92 92 91 89 88
108 109 110 112 112 113 113 114 114 114 115 116 118 119 120 121 121 121 121 120 118 116 114 112 109 106 104 103 101 99 98 97 97 95 93 91 90 90 89 88 86 85
106 107 109 109 110 110 111 111 112 113 115 116 118 119 119 119 119 119 118 115 112 110 108 107 105 102 99 98 96 94 92 92 92 91 89 88 88 88 87 86 84 82
104 105 106 106 108 109 110 112 113 114 115 116 117 117 117 116 116 114 112 109 107 104 103 102 100 97 94 92 90 88 87 87 87 86 86 86 86 87 86 85 83 80
102 103 105 107 109 111 113 114 115 115 116 116 115 115 114 112 110 108 106 104 101 99 98 96 95 93 90 87 86 84 82 82 82 81 81 82 84 85 85 84 82 79
103 105 107 109 111 113 115 115 115 115 114 114 112 111 109 106 104 103 101 98 96 94 93 91 89 88 85 83 81 80 79 78 78 77 77 79 81 82 82 82 80 79
106 108 110 111 113 114 115 115 113 113 112 110 108 105 103 101 99 97 96 94 91 89 88 86 84 83 82 79 78 77 77 75 75 75 74 75 76 78 79 79 78 79
Wind_Direction
272 272 272 272 272 273 273 273 273 273 274 274 274 275 275 275 275 275 276 276 276 276 276 276 276 276 276 276 277 277 277 277 278 278 278 279 279 279 279 279 279 279
273 273 273 273 273 274 274 274 274 274 275 275 275 275 275 275 276 276 276 276 276 276 276 277 277 277 277 277 278 278 278 279 279 279 280 280 280 280 280 280 280 280
274 274 274 274 274 274 274 275 275 275 275 275 275 275 276 276 276 276 276 276 277 277 277 277 278 278 278 279 279 280 280 280 281 281 281 281 281 281 282 282 282 281
274 274 274 274 275 275 275 275 275 275 275 276 276 276 276 276 276 276 277 277 277 278 278 279 279 280 280 281 281 281 282 282 282 283 283 283 283 283 283 283 283 282
274 274 274 275 275 275 275 275 275 275 276 276 276 276 276 276 277 277 278 278 279 279 280 280 281 281 282 282 283 283 284 284 284 284 284 284 284 284 284 283 283 283
274 274 275 275 275 275 275 275 275 276 276 276 276 277 277 278 278 279 279 280 280 281 281 282 283 283 283 284 284 284 285 285 285 285 285 284 284 284 284 283 283 283
274 274 274 275 275 275 275 276 276 276 277 277 277 278 278 279 279 280 280 281 281 282 282 283 283 284 284 284 284 285 285 285 285 285 285 284 284 284 284 284 284 285
274 275 275 275 275 276 276 276 277 277 277 278 278 279 279 280 280 280 281 281 282 282 283 283 283 284 284 284 285 285 285 285 285 285 285 285 285 285 285 286 286 286
275 275 275 276 276 276 276 277 277 277 278 278 278 279 279 280 280 281 281 282 282 283 283 283 284 284 285 285 285 286 286 286 285 285 285 286 286 287 287 287 287 287
275 276 276 276 276 277 277 277 278 278 278 279 279 280 280 281 281 282 282 283 283 283 284 284 285 285 286 286 286 286 286 286 286 286 287 287 288 288 288 288 288 288
276 276 277 277 277 278 278 279 279 279 280 280 281 281 281 282 282 283 283 284 284 284 285 285 286 286 287 287 287 287 287 287 287 288 288 289 289 289 289 289 289 289
277 277 278 278 279 279 279 280 280 280 281 281 282 282 282 283 283 284 284 285 285 286 286 287 287 288 288 287 287 287 288 288 289 289 289 289 289 289 289 289 289 289
279 279 279 279 280 280 281 281 281 281 282 282 282 283 284 284 285 285 286 286 287 288 288 288 288 288 288 288 288 288 289 289 289 290 290 290 290 290 290 290 290 290
280 280 281 281 281 282 282 282 282 282 283 283 284 285 285 286 286 287 288 288 289 289 289 288 288 288 288 288 289 289 290 290 290 290 291 291 291 291 290 290 290 290
281 282 282 282 283 283 283 283 283 284 285 286 286 287 287 287 288 289 289 289 289 289 288 288 288 289 289 290 290 291 291 291 291 291 291 291 291 291 291 290 290 290
283 283 283 284 284 284 284 285 285 286 287 287 288 288 288 289 289 289 289 289 289 289 289 289 290 291 291 291 292 292 292 292 292 292 292 291 291 291 291 291 291 291
284 284 284 285 285 285 286 286 287 288 288 289 289 289 289 290 290 290 289 289 289 290 291 291 292 292 293 293 293 293 293 292 292 292 292 292 292 292 292 292 292 292
284 285 285 286 286 287 287 288 288 289 289 289 290 290 290 290 290 290 290 290 291 292 292 293 293 293 294 294 293 293 293 293 292 292 292 292 292 292 292 292 292 292
286 286 287 287 287 287 288 289 289 290 290 290 291 291 291 290 290 291 291 292 293 293 294 294 294 294 294 294 294 294 294 293 293 292 292 292 293 293 292 292 292 292
287 288 288 288 288 289 289 290 290 291 291 291 291 291 291 291 292 293 293 294 294 294 294 294 294 294 294 294 294 294 294 294 293 293 293 293 293 293 292 291 291 291
288 289 289 289 290 291 291 291 292 292 292 292 292 292 292 293 293 294 294 295 295 295 295 295 295 295 295 295 294 294 295 294 294 294 294 294 293 292 292 291 291 291
290 291 291 292 292 292 292 293 292 292 292 292 292 292 293 294 295 295 295 295 296 296 295 295 295 295 295 295 295 295 296 295 295 295 295 294 293 292 292 291 291 291
292 293 293 293 294 294 294 293 293 292 292 292 293 294 295 295 295 296 296 296 296 296 296 295 295 295 296 296 296 296 296 295 295 295 295 295 294 293 293 292 292 293
294 294 295 295 295 294 294 293 292 293 293 294 295 295 296 296 296 296 296 296 296 296 296 296 296 296 297 297 297 296 295 295 295 295 295 295 294 294 294 295 296 296
296 296 296 295 294 293 293 293 293 294 295 296 297 297 297 297 296 296 296 296 296 296 296 297 297 297 297 297 296 295 295 294 294 295 295 295 295 296 297 299 300 301
296 295 295 294 293 293 293 294 296 297 297 297 298 297 297 297 296 296 296 296 297 297 297 297 297 297 297 296 296 295 295 295 295 295 295 296 298 299 300 301 302 302
Height
10431 10428 10425 10423 10419 10415 10411 10407 10403 10399 10396 10392 10387 10383 10378 10373 10369 10364 10360 10355 10351 10347 10342 10338 10333 10328 10323 10317 10312 10306 10301 10297 10293 10289 10285 10279 10274 10271 10266 10261 10255 10248
10418 10415 10412 10408 10404 10400 10396 10392 10388 10384 10381 10377 10372 10367 10362 10357 10352 10347 10343 10338 10333 10329 10324 10319 10314 10310 10304 10298 10292 10287 10282 10278 10274 10270 10265 10259 10254 10250 10246 10239 10232 10225
10404 10401 10397 10393 10389 10385 10381 10377 10373 10369 10364 10360 10355 10350 10345 10340 10335 10330 10325 10321 10316 10311 10305 10300 10296 10291 10286 10280 10273 10268 10263 10258 10255 10250 10244 10238 10234 10230 10224 10217 10209 10201
10390 10386 10382 10378 10374 10369 10365 10361 10357 10352 10348 10343 10338 10333 10328 10323 10318 10313 10308 10303 10298 10293 10287 10283 10278 10274 10267 10261 10254 10248 10244 10239 10235 10230 10223 10217 10212 10208 10202 10194 10186 10177
10375 10371 10367 10363 10358 10354 10349 10345 10340 10335 10330 10326 10321 10315 10310 10305 10301 10296 10291 10286 10281 10275 10270 10265 10260 10255 10249 10241 10234 10228 10224 10219 10215 10209 10202 10196 10190 10185 10180 10171 10162 10155
10360 10356 10352 10347 10342 10337 10333 10328 10323 10318 10313 10308 10303 10298 10293 10288 10283 10279 10274 10268 10263 10257 10253 10248 10242 10236 10230 10223 10215 10209 10204 10200 10195 10188 10181 10176 10170 10163 10157 10149 10141 10133
10344 10340 10335 10330 10326 10321 10316 10311 10306 10301 10296 10291 10286 10281 10276 10271 10266 10261 10256 10251 10245 10240 10235 10230 10224 10218 10211 10205 10197 10190 10186 10180 10175 10168 10161 10155 10149 10143 10136 10128 10121 10113
10327 10323 10319 10314 10309 10304 10299 10293 10288 10284 10279 10274 10269 10264 10259 10254 10249 10243 10238 10233 10228 10222 10217 10212 10206 10200 10194 10187 10180 10173 10167 10161 10154 10147 10139 10134 10128 10123 10117 10108 10100 10093
10311 10307 10302 10297 10292 10287 10282 10276 10271 10267 10262 10257 10252 10247 10242 10238 10232 10227 10221 10216 10211 10205 10200 10195 10189 10184 10177 10170 10163 10155 10148 10141 10133 10125 10119 10114 10110 10103 10097 10088 10079 10071
10295 10290 10286 10280 10275 10270 10265 10260 10255 10250 10245 10241 10236 10231 10226 10221 10215 10211 10205 10199 10194 10189 10183 10178 10173 10167 10160 10152 10144 10137 10130 10121 10112 10105 10099 10095 10091 10084 10076 10068 10058 10050
10279 10275 10270 10264 10259 10255 10249 10244 10238 10233 10228 10225 10220 10214 10209 10204 10199 10194 10189 10183 10178 10172 10167 10161 10156 10150 10142 10132 10124 10117 10110 10103 10094 10087 10081 10076 10072 10064 10056 10047 10038 10030
10264 10259 10255 10249 10244 10239 10234 10228 10222 10217 10212 10208 10204 10198 10192 10188 10182 10177 10172 10167 10161 10156 10150 10144 10137 10130 10123 10112 10104 10097 10091 10084 10076 10068 10062 10056 10051 10044 10035 10027 10019 10010
10249 10245 10240 10234 10230 10224 10218 10212 10205 10201 10197 10193 10188 10182 10177 10172 10166 10160 10155 10150 10145 10138 10132 10126 10118 10110 10103 10094 10085 10080 10073 10066 10057 10049 10044 10037 10030 10024 10016 10008 10001 9993
10234 10230 10225 10219 10215 10209 10202 10195 10189 10185 10182 10177 10172 10166 10161 10155 10149 10143 10138 10132 10127 10121 10113 10106 10099 10092 10085 10076 10068 10062 10056 10047 10038 10030 10025 10018 10010 10004 9997 9990 9983 9977
10219 10214 10210 10205 10200 10193 10186 10179 10174 10170 10167 10161 10155 10150 10144 10138 10132 10127 10121 10114 10107 10101 10093 10086 10080 10074 10067 10058 10050 10044 10037 10028 10019 10012 10007 10001 9993 9986 9980 9972 9966 9960
10205 10199 10195 10190 10184 10177 10169 10164 10160 10155 10151 10145 10139 10132 10126 10121 10116 10109 10103 10096 10088 10081 10074 10067 10062 10057 10049 10040 10032 10027 10020 10010 10000 9993 9988 9983 9977 9970 9963 9956 9949 9943
10190 10184 10180 10175 10168 10161 10154 10149 10145 10140 10134 10129 10122 10115 10109 10103 10098 10091 10083 10077 10070 10062 10055 10049 10044 10039 10030 10021 10014 10008 10002 9993 9983 9976 9971 9965 9960 9955 9947 9940 9933 9927
10175 10170 10165 10159 10152 10145 10139 10135 10130 10124 10119 10113 10105 10097 10092 10085 10079 10071 10064 10058 10053 10045 10037 10031 10026 10021 10012 10004 9997 9991 9984 9977 9968 9961 9956 9951 9946 9940 9933 9926 9920 9913
10160 10155 10150 10143 10136 10130 10125 10120 10114 10109 10102 10096 10088 10080 10073 10067 10060 10053 10046 10041 10036 10028 10020 10013 10008 10003 9995 9987 9980 9974 9967 9959 9952 9945 9941 9936 9932 9925 9919 9913 9908 9902
10146 10141 10134 10127 10121 10116 10110 10104 10098 10093 10086 10079 10071 10062 10055 10049 10042 10036 10030 10025 10019 10011 10002 9996 9991 9986 9979 9972 9965 9959 9951 9943 9936 9930 9925 9921 9917 9911 9904 9899 9895 9890
10132 10126 10118 10112 10107 10101 10094 10088 10082 10076 10069 10062 10054 10046 10039 10033 10026 10020 10013 10007 10002 9996 9986 9978 9974 9971 9964 9957 9951 9945 9937 9928 9920 9915 9911 9906 9901 9895 9890 9886 9882 9878
10117 10110 10102 10096 10091 10085 10078 10072 10066 10060 10053 10046 10039 10031 10025 10019 10011 10004 9997 9991 9985 9980 9971 9962 9957 9956 9951 9943 9937 9932 9924 9915 9907 9901 9897 9891 9885 9879 9875 9871 9868 9865
10101 10094 10087 10081 10075 10068 10062 10055 10049 10044 10038 10031 10024 10017 10011 10004 9996 9988 9981 9975 9969 9964 9958 9949 9942 9940 9937 9930 9923 9919 9913 9904 9896 9890 9885 9878 9870 9864 9859 9857 9854 9852
10086 10079 10073 10066 10059 10052 10045 10038 10033 10028 10022 10016 10009 10002 9995 9989 9981 9973 9966 9961 9956 9949 9943 9937 9929 9924 9922 9917 9910 9906 9901 9894 9887 9881 9875 9866 9858 9851 9845 9842 9840 9837
10071 10064 10058 10051 10044 10036 10028 10021 10017 10012 10006 10000 9993 9986 9979 9973 9966 9959 9952 9947 9943 9936 9929 9925 9918 9911 9908 9905 9898 9892 9889 9884 9877 9872 9865 9857 9848 9841 9835 9830 9826 9822
10056 10049 10042 10035 10028 10020 10012 10006 10003 9996 9989 9983 9977 9970 9963 9957 9952 9946 9938 9932 9929 9923 9917 9913 9908 9900 9895 9892 9887 9880 9876 9873 9867 9861 9856 9850 9841 9833 9827 9822 9816 9810